Flag for Australia Weather past 2 weeks in Port Hedland, Western Australia, Australia

Now
70 °F

Clear.


Feels Like: 70 °F
Forecast: 67 / 79 °F
Wind: 9 mph from West

Location: Port Hedland Pardoo

Current Time: Aug 1, 2015 at 10:10:26 PM

Latest Report: Aug 1, 2015 at 9:30 PM


Visibility: N/A

Pressure: 30.01 "Hg

Humidity: 88%

Dew point: 66 °F

Location of Port HedlandLocation

Historic Weather in Port Hedland — Graph

°F

Port Hedland temperature yesterday

Maximum temperature yesterday: 84 °F (at 12:30 PM)
Minimum temperature yesterday: 57 °F (at 7:00 AM)
Average temperature yesterday: 69 °F

Past Weeks' High & Low Weather Summary

 TemperatureHumidityPressure
High90 °F (Jul 28, 12:00 PM)100% (Jul 22, 1:00 AM)30.24 "Hg (Jul 22, 1:00 AM)
Low54 °F (Jul 19, 2:00 AM)9% (Jul 19, 12:00 PM)29.95 "Hg (Jul 21, 3:00 PM)
Average70 °F56%30.07 "Hg
* Reported Jul 17 9:00 PM — Aug 1 9:00 PM, Port Hedland, Weather by CustomWeather, © 2015

Note: Actual official high and low records may vary slightly from our data, if they occured in-between our weather recording intervals... More about our weather records

Advertising

Port Hedland weather history for previous 24 hours

 ConditionsComfort  
Time TempWeatherWind HumidityBarometerVisibility
9:00 PM
Sat, Aug 1
70 °FClear.10 mph94%30.04 "HgN/A
8:30 PM70 °FClear.10 mph88%30.01 "HgN/A
8:00 PM70 °FClear.10 mph88%30.01 "HgN/A
7:30 PM72 °FClear.12 mph78%30.01 "HgN/A
7:00 PM72 °FClear.12 mph78%30.01 "HgN/A
6:30 PM72 °FClear.12 mph73%29.98 "HgN/A
6:00 PM73 °FClear.13 mph74%29.98 "HgN/A
5:30 PM75 °FClear.17 mph65%29.98 "HgN/A
5:00 PM79 °FClear.16 mph51%29.98 "HgN/A
4:30 PM79 °FSunny.17 mph51%29.95 "HgN/A
4:00 PM81 °FSunny.17 mph51%29.95 "HgN/A
3:30 PM82 °FSunny.17 mph45%29.95 "HgN/A
3:00 PM82 °FSunny.17 mph48%29.95 "HgN/A
2:30 PM82 °FSunny.16 mph55%29.95 "HgN/A
2:00 PM82 °FSunny.17 mph51%29.98 "HgN/A
1:30 PM84 °FSunny.14 mph43%29.98 "HgN/A
12:30 PM86 °FSunny.10 mph29%30.01 "HgN/A
12:00 PM84 °FSunny.10 mph31%30.01 "HgN/A
11:00 AM81 °FSunny.9 mph45%30.04 "HgN/A
10:30 AM79 °FSunny.8 mph51%30.04 "HgN/A
10:00 AM75 °FSunny.9 mph65%30.07 "HgN/A
9:30 AM73 °FSunny.7 mph78%30.07 "HgN/A
9:00 AM68 °FPartly sunny.8 mph94%30.04 "HgN/A
8:00 AM66 °FLow clouds.6 mph100%30.04 "Hg0 mi
7:30 AM64 °FLow clouds.7 mph100%30.01 "Hg0 mi
7:00 AM64 °FLow clouds.6 mph100%30.01 "Hg0 mi
6:30 AM63 °FLow clouds.No wind100%30.01 "Hg0 mi
5:30 AM59 °FPassing clouds.No wind100%29.98 "Hg0 mi
5:05 AM59 °FPassing clouds.No wind100%29.98 "Hg1 mi
5:00 AM59 °FPassing clouds.No wind100%29.98 "Hg1 mi
4:30 AM59 °FLow clouds.No wind100%29.98 "Hg0 mi
4:04 AM61 °FPassing clouds.No wind100%29.98 "HgN/A
3:04 AM61 °FLow clouds.3 mph100%29.98 "Hg1 mi
2:30 AM61 °FLow clouds.No wind100%29.98 "Hg0 mi
2:00 AM63 °FLow clouds.No wind100%29.98 "Hg0 mi
1:30 AM63 °FLow clouds.No wind100%30.01 "Hg0 mi
1:00 AM63 °FLow clouds.No wind100%30.01 "Hg0 mi
12:30 AM63 °FLow clouds.1 mph100%30.01 "Hg0 mi
12:00 AM63 °FLow clouds.No wind100%30.01 "Hg0 mi
11:30 PM
Fri, Jul 31
63 °FMostly cloudy.6 mph100%30.01 "Hg0 mi
11:00 PM63 °FLow clouds.5 mph100%30.01 "Hg0 mi
10:30 PM63 °FPassing clouds.6 mph100%30.01 "Hg0 mi
10:03 PM63 °FPassing clouds.7 mph100%30.01 "Hg1 mi
Weather by CustomWeather, © 2015

See weather overviewHow to use our weather pages